DELTA 1 DEB, 42642

Orbit data source: Space-Track

DELTA 1 DEB, 42642 is space debris in SSO originally from a launch on Thu, 12 Jun 1975 UTC launched from the Air Force Western Test Range (AFWTR). Debris objects in space refer to the collection of defunct objects orbiting the Earth. Examples of debris include non-operational satellites, rocket bodies, and fragments generated from explosions, collisions, or faulty payload assembly.

Loading next visibility...
Identifier
42642, 1975-052MB
Orbit
SSO
Country
Flag of USUS
Related business
Manufacturer
Unknown
Mission
Spacecraft
Bus & Motor
Unknown
Mass
Unknown
Launch date (UTC)
1975-06-12 (51 years ago)
Launch vehicle
Unknown
Launch site
Air Force Western Test Range (AFWTR)
Object type
Payload
Rocket body
Debris
Shape & HBR
Unknown shape, 0.1 m
Radar Cross Section
Small (<0.1 m²)

Expand to show TLE details & history
Last TLE update: 5 days ago

TLE from 5 days ago
0 DELTA 1 DEB
1 42642U 75052MB  26261.51393984  .00000050  00000-0  18904-3 0  9996
2 42642  99.8926 355.4623 0076638 150.3746 210.1751 13.31493520623488
Epoch: 2026-09-18T12:20Z
TLE epoch observation values (Epoch: 2026-09-18T12:20:04.402Z)
Latitude
0.00002°
Longitude
173.00822°
Altitude
1,193.826 km
Speed
7.233 km/s
True Right ascension
23h 41m 50s
True Declination
0° 00' 00"
Sunlit
Object was in full shadow at epoch
Visualization orbit readout
Latitude
Unknown
Longitude
Unknown
Altitude
Unknown
Speed
Unknown
Apparent Right ascension
Unknown
Apparent Declination
Unknown
Sunlit
N/A
Visualization observer readout
Local Sidereal Time
20:48:43
Azimuth
Unknown
Elevation
Unknown
Doppler factor
Unknown
Orbital elements
Apogee altitude
1,196.077 km
Perigee altitude
1,080.865 km
Semi-major axis
7,516.608 km
Eccentricity
0.00766
Inclination
99.8926°
RAAN
355.4623°
Arg. of periapsis
150.3746°
True anomaly
209.73731°
Mean anomaly
210.1751°
Eccentric anomaly
209.95584°
Mean motion
3.33051 °/min
Orbital period
108.09 mins
BSTAR
0.00018904
Loading maneuver chart data...
Computing Atmospheric mass density...

Documentation

Showing up to 5 results
|